| time (UTC) | temp F | wind direction | speed MPH | gust MPH | rain 1hr in | rain 24hr in | rain mn in | humidity % | barometer mb |
| 20260505124511 | 60 | 77 | 1.0 | 7.0 | 0.00 | 0.37 | 0.37 | 91 | 1008.0 |
| 20260505123041 | 60 | 15 | 1.0 | 5.0 | 0.00 | 0.37 | 0.37 | 91 | 1007.5 |
| 20260505121528 | 0 | 0.0 | 0.0 | 0.00 | 0.37 | 0.37 | 1007.5 | ||
| 20260505120034 | 0 | 0.0 | 0.0 | 0.00 | 0.37 | 0.37 | 1007.1 | ||
| 20260505114532 | 0 | 0.0 | 0.0 | 0.00 | 0.37 | 0.37 | 1007.0 | ||
| 20260505113032 | 0 | 0.0 | 0.0 | 0.00 | 0.37 | 0.37 | 1007.0 | ||
| 20260505111535 | 0 | 0.0 | 0.0 | 0.00 | 0.37 | 0.37 | 1007.2 | ||
| 20260505101529 | 0 | 0.0 | 0.0 | 0.00 | 0.37 | 0.37 | 1006.6 | ||
| 20260505100034 | 0 | 0.0 | 0.0 | 0.00 | 0.37 | 0.37 | 1006.8 | ||
| 20260505094531 | 0 | 0.0 | 0.0 | 0.01 | 0.37 | 0.37 | 1006.1 | ||
| 20260505093033 | 0 | 0.0 | 0.0 | 0.02 | 0.37 | 0.37 | 1006.5 | ||
| 20260505091533 | 0 | 0.0 | 0.0 | 0.04 | 0.37 | 0.37 | 1007.0 | ||
| 20260505090036 | 0 | 0.0 | 0.0 | 0.05 | 0.37 | 0.37 | 1006.9 | ||
| 20260505084512 | 62 | 284 | 2.0 | 14.0 | 0.13 | 0.36 | 0.36 | 88 | 1007.0 |
| 20260505083020 | 61 | 238 | 9.0 | 18.0 | 0.14 | 0.35 | 0.35 | 93 | 1006.4 |
| 20260505081504 | 61 | 139 | 3.0 | 13.0 | 0.14 | 0.33 | 0.33 | 93 | 1006.0 |
| 20260505080007 | 62 | 145 | 1.0 | 5.0 | 0.16 | 0.32 | 0.32 | 93 | 1007.2 |
| 20260505074511 | 61 | 326 | 0.0 | 3.0 | 0.12 | 0.23 | 0.23 | 93 | 1008.1 |
| 20260505073019 | 61 | 155 | 2.0 | 3.0 | 0.13 | 0.21 | 0.21 | 92 | 1008.0 |
| 20260505071520 | 61 | 39 | 0.0 | 2.0 | 0.14 | 0.19 | 0.19 | 91 | 1009.0 |
| 20260505070007 | 62 | 44 | 0.0 | 5.0 | 0.14 | 0.16 | 0.16 | 89 | 1009.2 |
| 20260505064511 | 63 | 329 | 2.0 | 6.0 | 0.11 | 0.11 | 0.11 | 87 | 1009.5 |
| 20260505063015 | 63 | 268 | 1.0 | 4.0 | 0.08 | 0.08 | 0.08 | 85 | 1009.2 |
| 20260505061520 | 65 | 163 | 2.0 | 5.0 | 0.05 | 0.05 | 0.05 | 81 | 1007.8 |
| 20260505060007 | 66 | 162 | 2.0 | 11.0 | 0.02 | 0.02 | 0.02 | 75 | 1007.6 |
| 20260505054517 | 68 | 191 | 6.0 | 12.0 | 0.00 | 0.00 | 0.00 | 68 | 1007.0 |
| 20260505053015 | 69 | 98 | 5.0 | 11.0 | 0.00 | 0.00 | 0.00 | 65 | 1006.7 |
| 20260505051519 | 69 | 154 | 4.0 | 12.0 | 0.00 | 0.00 | 0.00 | 64 | 1007.0 |
| 20260505041520 | 69 | 148 | 4.0 | 9.0 | 0.00 | 0.00 | 0.00 | 65 | 1007.0 |
| 20260505040023 | 69 | 162 | 2.0 | 9.0 | 0.00 | 0.00 | 0.00 | 65 | 1007.3 |
| 20260505034527 | 69 | 153 | 2.0 | 7.0 | 0.00 | 0.00 | 0.00 | 65 | 1007.7 |
| 20260505033014 | 69 | 94 | 2.0 | 7.0 | 0.00 | 0.00 | 0.00 | 65 | 1007.7 |
| 20260505031516 | 69 | 168 | 1.0 | 6.0 | 0.00 | 0.00 | 0.00 | 65 | 1007.9 |
| 20260505030037 | 69 | 127 | 1.0 | 4.0 | 0.00 | 0.00 | 0.00 | 65 | 1007.9 |
| 20260505024525 | 70 | 137 | 1.0 | 4.0 | 0.00 | 0.00 | 0.00 | 63 | 1007.7 |
| 20260505023032 | 70 | 174 | 1.0 | 7.0 | 0.00 | 0.00 | 0.00 | 63 | 1007.6 |
| 20260505021520 | 70 | 177 | 2.0 | 5.0 | 0.00 | 0.00 | 0.00 | 62 | 1007.5 |
| 20260505020020 | 71 | 172 | 2.0 | 5.0 | 0.00 | 0.00 | 0.00 | 61 | 1007.3 |
| 20260505014524 | 71 | 165 | 2.0 | 4.0 | 0.00 | 0.00 | 0.00 | 60 | 1007.3 |
| 20260505013025 | 72 | 167 | 1.0 | 6.0 | 0.00 | 0.00 | 0.00 | 58 | 1007.2 |
| 20260505011515 | 73 | 212 | 3.0 | 11.0 | 0.00 | 0.00 | 0.00 | 57 | 1007.1 |
| 20260505010020 | 73 | 221 | 3.0 | 10.0 | 0.00 | 0.00 | 0.00 | 56 | 1007.0 |
| 20260505004543 | 74 | 230 | 4.0 | 10.0 | 0.00 | 0.00 | 0.00 | 56 | 1006.8 |
| 20260505003030 | 74 | 224 | 3.0 | 8.0 | 0.00 | 0.00 | 0.00 | 55 | 1006.9 |
| 20260505001528 | 75 | 232 | 5.0 | 12.0 | 0.00 | 0.00 | 0.00 | 53 | 1006.6 |
| 20260505000016 | 76 | 229 | 7.0 | 14.0 | 0.00 | 0.00 | 0.00 | 52 | 1006.4 |
| 20260504234521 | 76 | 168 | 5.0 | 19.0 | 0.00 | 0.00 | 0.00 | 51 | 1006.5 |
| 20260504233025 | 77 | 272 | 8.0 | 15.0 | 0.00 | 0.00 | 0.00 | 50 | 1006.4 |
| 20260504231528 | 77 | 259 | 8.0 | 16.0 | 0.00 | 0.00 | 0.00 | 50 | 1006.4 |
| 20260504230014 | 78 | 195 | 8.0 | 15.0 | 0.00 | 0.00 | 0.00 | 49 | 1006.4 |
| 20260504224511 | 78 | 238 | 4.0 | 16.0 | 0.00 | 0.00 | 0.00 | 48 | 1006.4 |
| 20260504223004 | 78 | 289 | 7.0 | 18.0 | 0.00 | 0.00 | 0.00 | 47 | 1006.4 |
| 20260504221514 | 79 | 247 | 8.0 | 19.0 | 0.00 | 0.00 | 0.00 | 47 | 1006.1 |
| 20260504220013 | 78 | 223 | 11.0 | 24.0 | 0.00 | 0.00 | 0.00 | 47 | 1006.2 |
| 20260504214516 | 79 | 150 | 12.0 | 26.0 | 0.00 | 0.00 | 0.00 | 47 | 1006.5 |
| 20260504213032 | 79 | 139 | 6.0 | 20.0 | 0.00 | 0.00 | 0.00 | 47 | 1006.4 |
| 20260504211507 | 79 | 220 | 11.0 | 20.0 | 0.00 | 0.00 | 0.00 | 47 | 1006.5 |
| 20260504210011 | 80 | 191 | 13.0 | 25.0 | 0.00 | 0.00 | 0.00 | 47 | 1006.7 |
| 20260504204518 | 79 | 149 | 10.0 | 27.0 | 0.00 | 0.00 | 0.00 | 47 | 1007.0 |
| 20260504203018 | 80 | 188 | 10.0 | 20.0 | 0.00 | 0.00 | 0.00 | 48 | 1007.1 |
| 20260504201518 | 80 | 245 | 12.0 | 25.0 | 0.00 | 0.00 | 0.00 | 46 | 1007.3 |
| 20260504200020 | 79 | 203 | 11.0 | 29.0 | 0.00 | 0.00 | 0.00 | 46 | 1007.7 |
| 20260504194521 | 79 | 151 | 7.0 | 19.0 | 0.00 | 0.00 | 0.00 | 47 | 1007.7 |
| 20260504193020 | 78 | 180 | 8.0 | 21.0 | 0.00 | 0.00 | 0.00 | 47 | 1007.8 |
| 20260504191524 | 79 | 252 | 10.0 | 23.0 | 0.00 | 0.00 | 0.00 | 48 | 1007.9 |
| 20260504190021 | 79 | 98 | 6.0 | 22.0 | 0.00 | 0.00 | 0.00 | 48 | 1007.9 |
| 20260504184538 | 78 | 110 | 10.0 | 23.0 | 0.00 | 0.00 | 0.00 | 48 | 1007.6 |
| 20260504183020 | 78 | 274 | 12.0 | 26.0 | 0.00 | 0.00 | 0.00 | 47 | 1008.1 |
| 20260504181520 | 77 | 155 | 9.0 | 20.0 | 0.00 | 0.00 | 0.00 | 48 | 1008.1 |
| 20260504180020 | 77 | 220 | 10.0 | 24.0 | 0.00 | 0.00 | 0.00 | 47 | 1008.3 |
| 20260504174524 | 76 | 182 | 10.0 | 24.0 | 0.00 | 0.00 | 0.00 | 48 | 1008.5 |
| 20260504173023 | 75 | 233 | 10.0 | 28.0 | 0.00 | 0.00 | 0.00 | 49 | 1008.5 |
| 20260504171522 | 75 | 247 | 11.0 | 22.0 | 0.00 | 0.00 | 0.00 | 48 | 1008.7 |